Overview Statistics Trail Chart Weather Telemetry Raw packets
 

This is the latest recevied weather packets stored in our database for station/object SR8WXL-13. If no packets are shown the sender has not sent any weather packets the latest 10 day(s).

<< 27 28 29 30 31 32 33 >>
Time Temp. Humidity Pressure Rain* Wind** Luminosity Snow
1788074656 22.22° C 69% 1032.4 hPa 0 mm - - -
1788073818 21.11° C 74% 1032.3 hPa 0 mm - - -
1788073008 21.11° C 73% 1032.2 hPa 0 mm - - -
1788072200 18.89° C 77% 1032.3 hPa 0 mm - - -
1788071423 18.89° C 78% 1032 hPa 0 mm - - -
1788070599 18.89° C 78% 1032.5 hPa 0 mm - - -
1788069847 18.89° C 81% 1032.1 hPa 0 mm - - -
1788069034 17.22° C 87% 1032.3 hPa 0 mm - - -
1788068308 16.11° C 92% 1031.9 hPa 0 mm - - -
1788067459 15° C 95% 1032.3 hPa 0 mm - - -
1788066688 13.89° C 96% 1032.2 hPa 0 mm - - -
1788065953 12.78° C 96% 1032.1 hPa 0 mm - - -
1788065142 12.78° C 97% 1032.2 hPa 0 mm - - -
1788064343 12.78° C 97% 1032.2 hPa 0 mm - - -
1788063553 12.78° C 97% 1031.9 hPa 0 mm - - -
1788062723 12.78° C 97% 1032.1 hPa 0 mm - - -
1788061882 12.78° C 97% 1032.2 hPa 0 mm - - -
1788061122 12.78° C 97% 1032.2 hPa 0 mm - - -
1788060323 12.78° C 97% 1031.9 hPa 0 mm - - -
1788059571 12.78° C 97% 1031.9 hPa 0 mm - - -
1788058727 12.22° C 98% 1032.2 hPa 0 mm - - -
1788057883 12.22° C 97% 1032.3 hPa 0 mm - - -
1788057042 12.22° C 97% 1031.8 hPa 0 mm - - -
1788056243 12.78° C 97% 1031.8 hPa 0 mm - - -
1788055348 12.78° C 96% 1031.6 hPa 0 mm - - -

* Rain latest hour (hover to see other rain measurements)
** Current wind speed in m/s (hover to see current wind gust speed)